When you browse on this site, cookies collect data to enhance your experience and personalize the content and advertising you see.
Visit our Privacy Policy to learn more. By continuing to use the site, you agree to this use of cookies and data.
  • In Portugal
  • List of Countries
  • For 7 days
  • Water Temperature
  • Weather Map
  • Weather Widgets
  • user-avatar
    Login

    Hourly Weather Tirana

    Today, 15 October, Tuesday

    Time Temperature Precipitation Wind Pressure Humidity
    00:00 +20°C° 0 mm 1 mps 757 mmHg 80%
    01:00 +20°C° 0 mm 1 mps 757 mmHg 81%
    02:00 +19°C° 0 mm 1 mps 756 mmHg 82%
    03:00 +19°C° 0 mm 1 mps 756 mmHg 82%
    04:00 +19°C° 0 mm 1 mps 756 mmHg 83%
    05:00 +19°C° 0 mm 1 mps 756 mmHg 81%
    06:00 +20°C° 0 mm 1 mps 756 mmHg 78%
    07:00 +21°C° 0 mm 1 mps 756 mmHg 76%
    08:00 +22°C° 0 mm 1 mps 756 mmHg 69%
    09:00 +24°C° 0 mm 1 mps 756 mmHg 61%
    10:00 +24°C° 0 mm 0 mps 756 mmHg 54%
    11:00 +27°C° 0 mm 1 mps 755 mmHg 52%
    12:00 +27°C° 0 mm 2 mps 755 mmHg 51%
    13:00 +28°C° 0 mm 2 mps 755 mmHg 49%
    14:00 +27°C° 0 mm 2 mps 755 mmHg 52%
    15:00 +26°C° 0 mm 2 mps 754 mmHg 55%
    16:00 +25°C° 0 mm 1 mps 754 mmHg 59%
    17:00 +24°C° 0 mm 1 mps 754 mmHg 64%
    18:00 +22°C° 0 mm 1 mps 754 mmHg 69%
    19:00 +19°C° 0 mm 0 mps 755 mmHg 75%
    20:00 +20°C° 0 mm 1 mps 755 mmHg 76%
    21:00 +20°C° 0 mm 1 mps 755 mmHg 76%
    22:00 +19°C° 0 mm 2 mps 755 mmHg 77%
    23:00 +19°C° 0 mm 2 mps 755 mmHg 77%

    Tomorrow, 16 October, Wednesday

    Time Temperature Precipitation Wind Pressure Humidity
    00:00 +19°C° 0 mm 1 mps 755 mmHg 77%
    01:00 +19°C° 0 mm 1 mps 755 mmHg 78%
    02:00 +19°C° 0 mm 1 mps 755 mmHg 77%
    03:00 +18°C° 0 mm 2 mps 755 mmHg 76%
    04:00 +17°C° 0 mm 2 mps 754 mmHg 76%
    05:00 +18°C° 0 mm 2 mps 754 mmHg 73%
    06:00 +18°C° 0 mm 2 mps 755 mmHg 69%
    07:00 +20°C° 0 mm 1 mps 755 mmHg 66%
    08:00 +22°C° 0 mm 1 mps 755 mmHg 58%
    09:00 +24°C° 0 mm 1 mps 755 mmHg 50%
    10:00 +26°C° 0 mm 1 mps 755 mmHg 41%
    11:00 +27°C° 0 mm 1 mps 754 mmHg 40%
    12:00 +27°C° 0 mm 2 mps 754 mmHg 39%
    13:00 +28°C° 0 mm 2 mps 754 mmHg 38%
    14:00 +27°C° 0 mm 2 mps 754 mmHg 44%
    15:00 +26°C° 0 mm 2 mps 753 mmHg 50%
    16:00 +25°C° 0 mm 1 mps 753 mmHg 56%
    17:00 +23°C° 0 mm 1 mps 753 mmHg 59%
    18:00 +22°C° 0 mm 1 mps 754 mmHg 63%
    19:00 +21°C° 0 mm 1 mps 754 mmHg 67%
    20:00 +21°C° 0 mm 1 mps 754 mmHg 67%
    21:00 +20°C° 0 mm 1 mps 755 mmHg 67%
    22:00 +20°C° 0 mm 1 mps 755 mmHg 67%
    23:00 +20°C° 0 mm 1 mps 755 mmHg 67%

    Day after tomorrow, 17 October, Thursday

    Time Temperature Precipitation Wind Pressure Humidity
    00:00 +20°C° 0 mm 1 mps 755 mmHg 68%
    01:00 +20°C° 0 mm 1 mps 755 mmHg 68%
    02:00 +19°C° 0 mm 1 mps 755 mmHg 68%
    03:00 +19°C° 0 mm 1 mps 755 mmHg 68%
    04:00 +19°C° 0 mm 1 mps 754 mmHg 68%
    05:00 +19°C° 0 mm 1 mps 754 mmHg 67%
    06:00 +20°C° 0 mm 1 mps 755 mmHg 65%
    07:00 +20°C° 0 mm 1 mps 755 mmHg 64%
    08:00 +22°C° 0 mm 1 mps 755 mmHg 57%
    09:00 +24°C° 0 mm 1 mps 755 mmHg 50%
    10:00 +24°C° 0 mm 0 mps 755 mmHg 43%
    11:00 +26°C° 0 mm 1 mps 755 mmHg 42%
    12:00 +27°C° 0 mm 2 mps 755 mmHg 40%
    13:00 +28°C° 0 mm 3 mps 754 mmHg 39%
    14:00 +27°C° 0 mm 3 mps 754 mmHg 44%
    15:00 +26°C° 0 mm 3 mps 754 mmHg 48%
    16:00 +24°C° 0 mm 3 mps 754 mmHg 53%
    17:00 +23°C° 0 mm 2 mps 754 mmHg 58%
    18:00 +21°C° 0 mm 2 mps 755 mmHg 63%
    19:00 +19°C° 0 mm 2 mps 755 mmHg 67%
    20:00 +20°C° 0 mm 1 mps 755 mmHg 67%
    21:00 +20°C° 0 mm 1 mps 755 mmHg 67%
    22:00 +20°C° 0 mm 1 mps 756 mmHg 68%
    23:00 +19°C° 0 mm 1 mps 755 mmHg 68%

    18 October, Friday

    Time Temperature Precipitation Wind Pressure Humidity
    00:00 +19°C° 0 mm 1 mps 755 mmHg 69%
    01:00 +19°C° 0 mm 1 mps 755 mmHg 69%
    02:00 +19°C° 0 mm 1 mps 755 mmHg 70%
    03:00 +18°C° 0 mm 1 mps 755 mmHg 70%
    04:00 +18°C° 0 mm 1 mps 755 mmHg 70%
    05:00 +19°C° 0 mm 1 mps 755 mmHg 69%
    06:00 +19°C° 0 mm 1 mps 755 mmHg 67%
    07:00 +20°C° 0 mm 1 mps 755 mmHg 66%
    08:00 +22°C° 0 mm 1 mps 755 mmHg 59%
    09:00 +24°C° 0 mm 1 mps 755 mmHg 53%
    10:00 +25°C° 0 mm 1 mps 755 mmHg 46%
    11:00 +26°C° 0 mm 2 mps 755 mmHg 45%
    12:00 +26°C° 0 mm 3 mps 755 mmHg 45%
    13:00 +27°C° 0 mm 3 mps 754 mmHg 44%
    14:00 +26°C° 0 mm 3 mps 754 mmHg 48%
    15:00 +25°C° 0 mm 3 mps 754 mmHg 52%
    16:00 +24°C° 0 mm 3 mps 754 mmHg 56%
    17:00 +22°C° 0 mm 3 mps 754 mmHg 63%
    18:00 +20°C° 0 mm 2 mps 754 mmHg 69%
    19:00 +19°C° 0 mm 2 mps 755 mmHg 76%
    20:00 +20°C° 0 mm 1 mps 755 mmHg 75%
    21:00 +20°C° 0 mm 1 mps 755 mmHg 75%
    22:00 +19°C° 0 mm 1 mps 755 mmHg 75%
    23:00 +19°C° 0 mm 1 mps 755 mmHg 75%

    19 October, Saturday

    Time Temperature Precipitation Wind Pressure Humidity
    00:00 +19°C° 0 mm 1 mps 755 mmHg 75%
    01:00 +19°C° 0 mm 1 mps 755 mmHg 75%
    02:00 +19°C° 0 mm 1 mps 755 mmHg 74%
    03:00 +18°C° 0 mm 1 mps 755 mmHg 74%
    04:00 +18°C° 0 mm 1 mps 755 mmHg 74%
    05:00 +19°C° 0 mm 1 mps 755 mmHg 72%
    06:00 +19°C° 0 mm 1 mps 755 mmHg 70%
    07:00 +20°C° 0 mm 1 mps 755 mmHg 68%
    08:00 +22°C° 0 mm 1 mps 755 mmHg 61%
    09:00 +24°C° 0 mm 1 mps 755 mmHg 54%
    10:00 +24°C° 0 mm 0 mps 755 mmHg 48%
    11:00 +26°C° 0 mm 1 mps 755 mmHg 46%
    12:00 +27°C° 0 mm 2 mps 755 mmHg 45%
    13:00 +27°C° 0 mm 3 mps 755 mmHg 44%
    14:00 +26°C° 0 mm 3 mps 755 mmHg 49%
    15:00 +25°C° 0 mm 3 mps 755 mmHg 54%
    16:00 +24°C° 0 mm 3 mps 754 mmHg 60%
    17:00 +23°C° 0 mm 2 mps 755 mmHg 64%
    18:00 +22°C° 0 mm 1 mps 755 mmHg 69%
    19:00 +20°C° 0 mm 1 mps 755 mmHg 74%
    20:00 +20°C° 0 mm 1 mps 755 mmHg 74%
    21:00 +20°C° 0 mm 1 mps 755 mmHg 74%
    22:00 +20°C° 0 mm 1 mps 755 mmHg 75%
    23:00 +20°C° 0 mm 1 mps 755 mmHg 74%

    20 October, Sunday

    Time Temperature Precipitation Wind Pressure Humidity
    00:00 +20°C° 0 mm 1 mps 755 mmHg 74%
    01:00 +17°C° 0 mm 0 mps 755 mmHg 74%
    02:00 +17°C° 0 mm 0 mps 755 mmHg 74%
    03:00 +17°C° 0 mm 0 mps 755 mmHg 74%
    04:00 +17°C° 0 mm 0 mps 755 mmHg 75%
    05:00 +19°C° 0 mm 1 mps 755 mmHg 73%
    06:00 +19°C° 0 mm 1 mps 755 mmHg 71%
    07:00 +20°C° 0 mm 1 mps 755 mmHg 68%
    08:00 +21°C° 0 mm 2 mps 756 mmHg 62%
    09:00 +23°C° 0 mm 2 mps 756 mmHg 56%
    10:00 +25°C° 0 mm 2 mps 756 mmHg 50%
    11:00 +26°C° 0 mm 2 mps 756 mmHg 50%
    12:00 +26°C° 0 mm 3 mps 755 mmHg 49%
    13:00 +27°C° 0 mm 3 mps 755 mmHg 49%
    14:00 +26°C° 0 mm 2 mps 755 mmHg 54%
    15:00 +25°C° 0 mm 2 mps 755 mmHg 58%
    16:00 +24°C° 0 mm 2 mps 755 mmHg 63%
    17:00 +23°C° 0 mm 2 mps 755 mmHg 69%
    18:00 +21°C° 0 mm 2 mps 756 mmHg 74%
    19:00 +19°C° 0 mm 2 mps 756 mmHg 80%
    20:00 +19°C° 0 mm 2 mps 756 mmHg 81%
    21:00 +19°C° 0 mm 3 mps 756 mmHg 81%
    22:00 +19°C° 0 mm 3 mps 757 mmHg 82%
    23:00 +18°C° 0 mm 3 mps 757 mmHg 83%
    Show more